Weather History for 78982 - April, 2013

Change the Weather History Date:

Thursday, April 18, 2013

  Actual Average Record
Temperature  
Mean Temperature 85 °F -  
Max Temperature 90 °F 88 °F - ()
Min Temperature 80 °F 78 °F - ()
Cooling Degree Days 20    
Growing Degree Days 35 (Base 50)    
Moisture  
Dew Point 75 °F    
Average Humidity 73    
Maximum Humidity 84    
Minimum Humidity 55    
Precipitation  
Precipitation 0.00 in - - ()
Sea Level Pressure  
Sea Level Pressure 29.85 in    
Wind  
Wind Speed 18 mph ()    
Max Wind Speed 28 mph    
Max Gust Speed 37 mph    
Visibility 6.8 miles    
Events      
T = Trace of Precipitation, MM = Missing Value Source: Averaged Metar Reports

Daily Weather History Graph

Daily Weather History Graph

Search for Another Location

Airport or City:

Trip Planner

Search our weather history database for the weather conditions in past years. The results will help you decide how hot, cold, wet, or windy it might be!

Date:

Astronomy

Apr. 18, 2013 Rise Set
Actual Time 6:26 AM AST 6:52 PM AST
Civil Twilight 6:04 AM AST 7:14 PM AST
Nautical Twilight 5:39 AM AST 7:39 PM AST
Astronomical Twilight 5:13 AM AST 8:05 PM AST
Moon 12:45 PM AST (4/18) 12:51 AM AST (4/18)
Length of Visible Light 13h 10m
Length of Day
12h 26m
First Quarter, 51% of the Moon is Illuminated
Apr 18
First Quarter
Apr 25
Full
May 2
Last Quarter
May 9
New
May 18
First Quarter

Hourly Weather History & Observations

Time (AST) Temp. Heat Index Dew Point Humidity Pressure Visibility Wind Dir Wind Speed Gust Speed Precip Events Conditions
12:00 AM 80.6 °F 85.4 °F 73.4 °F 79% 29.86 in 6.2 mi ENE 18.4 mph - N/A   Partly Cloudy
1:00 AM 80.6 °F 85.4 °F 73.4 °F 79% 29.86 in 6.2 mi ENE 19.6 mph - N/A   Partly Cloudy
2:00 AM 80.6 °F 86.2 °F 75.2 °F 84% 29.83 in 6.2 mi ENE 13.8 mph - N/A   Partly Cloudy
3:00 AM 80.6 °F 86.2 °F 75.2 °F 84% 29.83 in 6.2 mi ENE 17.3 mph - N/A   Partly Cloudy
4:00 AM 80.6 °F 86.2 °F 75.2 °F 84% 29.83 in 6.2 mi East 16.1 mph - N/A   Partly Cloudy
5:00 AM 80.6 °F 86.2 °F 75.2 °F 84% 29.83 in 6.2 mi East 17.3 mph - N/A   Partly Cloudy
6:00 AM 80.6 °F 85.4 °F 73.4 °F 79% 29.83 in 6.2 mi East 18.4 mph - N/A   Partly Cloudy
7:00 AM 80.6 °F 86.2 °F 75.2 °F 84% 29.83 in 6.2 mi East 17.3 mph - N/A   Partly Cloudy
8:00 AM 83 °F - 74 °F 68% 29.86 in 9 mi East 21.9 mph - -   Haze
8:00 AM 84.2 °F 90.9 °F 73.4 °F 70% 29.86 in 6.2 mi East 21.9 mph - N/A   Partly Cloudy
9:00 AM 84.2 °F 92.3 °F 75.2 °F 74% 29.86 in 6.2 mi East 24.2 mph - N/A   Scattered Clouds
10:00 AM 86.0 °F 95.1 °F 75.2 °F 70% 29.86 in 6.2 mi East 23.0 mph 34.5 mph N/A   Scattered Clouds
11:00 AM 87 °F - 74 °F 59% 29.88 in 9 mi East 26.5 mph - -   Haze
11:00 AM 87.8 °F 97.6 °F 75.2 °F 66% 29.86 in 6.2 mi East 26.5 mph - N/A   Scattered Clouds
12:00 PM 87.8 °F 97.6 °F 75.2 °F 66% 29.86 in 6.2 mi East 23.0 mph - N/A   Scattered Clouds
1:00 PM 89.6 °F 99.8 °F 75.2 °F 62% 29.86 in 6.2 mi East 25.3 mph 36.8 mph N/A   Partly Cloudy
2:00 PM 89 °F - 75 °F 55% 29.83 in 9 mi ENE 27.6 mph - -   Haze
2:00 PM 89.6 °F 99.8 °F 75.2 °F 62% 29.83 in 6.2 mi ENE 27.6 mph - N/A   Partly Cloudy
3:00 PM 87.8 °F 97.6 °F 75.2 °F 66% 29.80 in 6.2 mi ENE 25.3 mph - N/A   Partly Cloudy
4:00 PM 87.8 °F 97.6 °F 75.2 °F 66% 29.80 in 6.2 mi East 24.2 mph - N/A   Partly Cloudy
5:00 PM 85 °F - 74 °F 63% 29.81 in 9 mi East 23.0 mph - -   Haze
5:00 PM 86.0 °F 95.1 °F 75.2 °F 70% 29.80 in 6.2 mi East 23.0 mph - N/A   Partly Cloudy
6:00 PM 84.2 °F 92.3 °F 75.2 °F 74% 29.80 in 6.2 mi East 23.0 mph - N/A   Partly Cloudy
7:00 PM 82.4 °F 89.5 °F 75.2 °F 79% 29.83 in 6.2 mi East 19.6 mph 32.2 mph N/A   Partly Cloudy
8:00 PM 82 °F - 75 °F 74% 29.86 in 9 mi East 19.6 mph - -   Haze
8:00 PM 82.4 °F 89.5 °F 75.2 °F 79% 29.86 in 6.2 mi East 19.6 mph - N/A   Partly Cloudy
9:00 PM 82.4 °F 89.5 °F 75.2 °F 79% 29.86 in 6.2 mi East 18.4 mph - N/A   Partly Cloudy
10:00 PM 80.6 °F 86.2 °F 75.2 °F 84% 29.89 in 6.2 mi East 18.4 mph - N/A   Partly Cloudy
11:00 PM 81 °F - 75 °F 76% 29.92 in 9 mi East 17.3 mph - -   Haze
11:00 PM 80.6 °F 86.2 °F 75.2 °F 84% 29.92 in 6.2 mi East 17.3 mph - N/A   Partly Cloudy